"2010-04-13 00:00:00",20620,8.24,208.3,5.322,0.572,18.05,108.0396,19.86,20.81,13.5,0,110.8,13.23,20.68,170.3
"2010-04-13 00:00:30",20621,7.97,200.8,4.779,0.919,18.05,108.0624,19.92,20.82,13.56,0,110.8,13.23,20.74,162.8
"2010-04-13 00:01:00",20622,7.62,199.5,4.186,0.821,18.09,108.0689,19.94,20.85,13.5,0,110.8,13.23,20.76,161.5
"2010-04-13 00:01:30",20623,8.56,207.4,5.692,0.781,18.15,108.0689,19.94,20.88,13.43,0,110.8,13.24,20.76,169.4
"2010-04-13 00:02:00",20624,9.38,206.2,1.828,0.301,18.17,108.0798,19.96,20.87,13.3,0,110.8,13.24,20.79,168.2
"2010-04-13 00:02:30",20625,10,208.7,3.136,0.346,18.21,108.0976,20.01,20.91,13.15,0,110.8,13.24,20.83,170.7
"2010-04-13 00:03:00",20626,9.69,205.4,3.65,0.381,18.22,108.1026,20.02,20.93,13.15,0,110.8,13.24,20.84,167.4
"2010-04-13 00:03:30",20627,9.42,204.6,1.656,0.219,18.27,108.1026,20.02,20.94,12.8,0,110.8,13.24,20.84,166.6
"2010-04-13 00:04:00",20628,9.2,204,2.161,0.112,18.29,108.1026,20.02,20.95,12.7,0,110.8,13.23,20.84,166.0
"2010-04-13 00:04:30",20629,9.15,208.1,1.156,0.164,18.24,108.1156,20.06,20.98,12.68,0,110.8,13.24,20.88,170.1
"2010-04-13 00:05:00",20630,9.23,209,3.761,0.587,18.2,108.1319,20.1,20.99,13.1,0,110.8,13.23,20.92,171.0
"2010-04-13 00:05:30",20631,8.74,209.7,2.467,0.614,18.23,108.1364,20.11,21.01,13.05,0,110.8,13.23,20.93,171.7
"2010-04-13 00:06:00",20632,8.81,210.6,3.049,0.244,18.29,108.1364,20.11,21.03,12.94,0,110.8,13.23,20.93,172.6
"2010-04-13 00:06:30",20633,8.96,210,4.212,0.575,18.32,108.1364,20.11,21.05,12.73,0,110.8,13.23,20.93,172.0
"2010-04-13 00:07:00",20634,10.37,217,4.31,0.34,18.3,108.1417,20.12,21.06,12.77,0,110.8,13.23,20.95,179.0
"2010-04-13 00:07:30",20635,11.04,212.7,6.262,0.7,18.3,108.1558,20.16,21.08,12.88,0,110.8,13.23,20.98,174.7
"2010-04-13 00:08:00",20636,11.12,217.9,4.034,0.476,18.3,108.1611,20.17,21.08,12.8,0,110.8,13.23,21.00,179.9
"2010-04-13 00:08:30",20637,11.47,219.3,1.491,0.292,18.33,108.1679,20.19,21.12,12.67,0,110.8,13.23,21.01,181.3
"2010-04-13 00:09:00",20638,11.65,216.3,2.084,0.467,18.38,108.1702,20.2,21.11,12.63,0,110.8,13.23,21.02,178.3
"2010-04-13 00:09:30",20639,11.53,215.3,3.892,0.689,18.44,108.1702,20.2,21.12,12.72,0,110.8,13.23,21.02,177.3
"2010-04-13 00:10:00",20640,11.23,222.6,4.293,0.506,18.47,108.1702,20.2,21.14,12.71,0,110.8,13.23,21.02,184.6
"2010-04-13 00:10:30",20641,11.22,222.2,2.584,0.677,18.47,108.1702,20.2,21.13,12.84,0,110.8,13.23,21.02,184.2
"2010-04-13 00:11:00",20642,10.88,219,3.283,0.779,18.46,108.1702,20.2,21.13,12.84,0,110.8,13.23,21.02,181.0
"2010-04-13 00:11:30",20643,10.1,215.9,3.003,0.281,18.48,108.1702,20.2,21.15,12.9,0,110.8,13.23,21.02,177.9
"2010-04-13 00:12:00",20644,10.67,218.9,1.923,0.516,18.49,108.1702,20.2,21.15,12.87,0,110.8,13.23,21.02,180.9
"2010-04-13 00:12:30",20645,11.34,218.8,1.232,0.145,18.5,108.1702,20.2,21.15,12.73,0,110.8,13.23,21.02,180.8
"2010-04-13 00:13:00",20646,11.03,217.7,2.119,0.373,18.53,108.1702,20.2,21.15,12.76,0,110.8,13.23,21.02,179.7
"2010-04-13 00:13:30",20647,10.51,216.6,3.5,0.751,18.5,108.1702,20.2,21.14,12.87,0,110.8,13.23,21.02,178.6
"2010-04-13 00:14:00",20648,12.23,220.8,6.543,0.726,18.62,108.1702,20.2,21.14,12.99,0,110.8,13.23,21.02,182.8
"2010-04-13 00:14:30",20649,12.09,225.6,1.206,0.583,18.58,108.1702,20.2,21.13,12.98,0,110.8,13.23,21.02,187.6
"2010-04-13 00:15:00",20650,11.74,226.2,1.495,0.256,18.58,108.1693,20.19,21.15,12.98,0,110.8,13.23,21.02,188.2
"2010-04-13 00:15:30",20651,11.27,228.4,3.943,0.98,18.55,108.164,20.18,21.13,13.07,0,110.8,13.23,21.00,190.4
"2010-04-13 00:16:00",20652,9.78,231.7,3.109,0.764,18.55,108.1595,20.17,21.13,13.16,0,110.8,13.23,20.99,193.7
"2010-04-13 00:16:30",20653,9.91,228.3,3.308,0.238,18.55,108.155,20.16,21.13,13.17,0,110.8,13.23,20.98,190.3
"2010-04-13 00:17:00",20654,10.4,238,3.083,0.344,18.55,108.1479,20.14,21.12,13.1,0,110.8,13.23,20.96,200.0
"2010-04-13 00:17:30",20655,10.8,233.4,3.767,0.303,18.57,108.1389,20.12,21.11,13.12,0,110.8,13.23,20.94,195.4
"2010-04-13 00:18:00",20656,10.8,229.1,2.361,0.502,18.59,108.1364,20.11,21.09,13.14,0,110.8,13.23,20.93,191.1
"2010-04-13 00:18:30",20657,11.44,228.6,2.425,0.412,18.64,108.1364,20.11,21.1,13.24,0,110.8,13.23,20.93,190.6
"2010-04-13 00:19:00",20658,10.74,233.9,3.492,0.547,18.58,108.1364,20.11,21.11,13.22,0,110.8,13.23,20.93,195.9
"2010-04-13 00:19:30",20659,9.19,229.8,2.22,0.408,18.54,108.1364,20.11,21.09,13.25,0,110.8,13.24,20.93,191.8
"2010-04-13 00:20:00",20660,8.96,222.7,4.754,0.433,18.55,108.1364,20.11,21.09,13.29,0,110.8,13.24,20.93,184.7
"2010-04-13 00:20:30",20661,9.32,224,2.774,0.358,18.52,108.1364,20.11,21.09,13.33,0,110.8,13.24,20.93,186.0
"2010-04-13 00:21:00",20662,9.05,230.2,2.274,1.013,18.52,108.1364,20.11,21.08,13.43,0,110.8,13.24,20.93,192.2
"2010-04-13 00:21:30",20663,9.28,229.4,4.139,0.229,18.52,108.1364,20.11,21.07,13.39,0,110.8,13.24,20.93,191.4
"2010-04-13 00:22:00",20664,9.02,238.4,2.373,0.623,18.48,108.1361,20.11,21.07,13.49,0,110.8,13.24,20.93,200.4
"2010-04-13 00:22:30",20665,10.21,235.1,2.319,0.284,18.51,108.1344,20.1,21.06,13.42,0,110.8,13.24,20.93,197.1
"2010-04-13 00:23:00",20666,9.29,232.2,3.946,0.293,18.47,108.1327,20.1,21.06,13.47,0,110.8,13.24,20.92,194.2
"2010-04-13 00:23:30",20667,9.68,230.8,3.176,0.394,18.5,108.1296,20.09,21.07,13.44,0,110.8,13.24,20.91,192.8
"2010-04-13 00:24:00",20668,9.87,232.2,3.828,0.431,18.48,108.1271,20.09,21.05,13.28,0,110.8,13.24,20.91,194.2
"2010-04-13 00:24:30",20669,10.47,231.7,1.762,0.643,18.52,108.1198,20.07,21.05,13.36,0,110.8,13.24,20.89,193.7
"2010-04-13 00:25:00",20670,11.26,228.6,1.382,0.25,18.51,108.108,20.04,21.05,13.33,0,110.8,13.24,20.86,190.6
"2010-04-13 00:25:30",20671,12.18,235,1.907,0.887,18.52,108.1029,20.02,21.04,13.41,0,110.8,13.24,20.85,197.0
"2010-04-13 00:26:00",20672,11.59,231.8,1.597,0.518,18.51,108.1026,20.02,21.02,13.34,0,110.8,13.24,20.84,193.8
"2010-04-13 00:26:30",20673,11.41,234.7,1.413,0.214,18.52,108.1026,20.02,21.03,13.31,0,110.8,13.24,20.84,196.7
"2010-04-13 00:27:00",20674,10.93,232.3,2.775,0.221,18.59,108.1026,20.02,21.03,13.3,0,110.8,13.24,20.84,194.3
"2010-04-13 00:27:30",20675,10.26,233.8,2.658,0.306,18.56,108.1026,20.02,21.02,13.31,0,110.8,13.24,20.84,195.8
"2010-04-13 00:28:00",20676,10.63,235.8,2.154,0.205,18.56,108.1026,20.02,21,13.39,0,110.8,13.24,20.84,197.8
"2010-04-13 00:28:30",20677,11.28,236.9,1.562,0.372,18.64,108.1026,20.02,21.01,13.36,0,110.8,13.24,20.84,198.9
"2010-04-13 00:29:00",20678,11.35,240.5,2.481,0.282,18.61,108.0987,20.01,21.02,13.33,0,110.8,13.23,20.83,202.5
"2010-04-13 00:29:30",20679,10.87,237.9,3.087,0.41,18.61,108.09,19.99,20.99,13.4,0,110.8,13.23,20.81,199.9
"2010-04-13 00:30:00",20680,10.07,230.8,3.534,0.385,18.59,108.0835,19.97,20.98,13.42,0,110.8,13.23,20.80,192.8
"2010-04-13 00:30:30",20681,10.34,237,5.157,0.659,18.56,108.0784,19.96,20.99,13.51,0,110.8,13.23,20.78,199.0
"2010-04-13 00:31:00",20682,11.29,240.8,2.47,0.279,18.52,108.0706,19.94,20.97,13.69,0,110.8,13.23,20.76,202.8
"2010-04-13 00:31:30",20683,10.67,239,3.011,0.683,18.56,108.0689,19.94,20.96,13.59,0,110.8,13.23,20.76,201.0
"2010-04-13 00:32:00",20684,9.93,234.6,1.695,0.273,18.6,108.0689,19.94,20.97,13.52,0,110.8,13.23,20.76,196.6
"2010-04-13 00:32:30",20685,10.32,238.6,2.633,0.463,18.56,108.0692,19.94,20.95,13.49,0,110.8,13.23,20.76,200.6
"2010-04-13 00:33:00",20686,11.35,241.3,1.715,0.303,18.49,108.0692,19.94,20.94,13.55,0,110.8,13.23,20.76,203.3
"2010-04-13 00:33:30",20687,11.29,243.2,1.802,0.288,18.53,108.0667,19.93,20.95,13.64,0,110.8,13.23,20.75,205.2
"2010-04-13 00:34:00",20688,11.85,239.3,0.95,0.412,18.55,108.0551,19.9,20.93,13.6,0,110.8,13.24,20.72,201.3
"2010-04-13 00:34:30",20689,11.21,242.6,1.272,0.191,18.48,108.0391,19.86,20.93,13.65,0,110.8,13.24,20.68,204.6
"2010-04-13 00:35:00",20690,11.48,240.2,1.11,0.214,18.54,108.036,19.85,20.9,13.75,0,110.8,13.24,20.67,202.2
"2010-04-13 00:35:30",20691,11.05,243.2,1.255,0.17,18.54,108.0357,19.85,20.89,13.84,0,110.8,13.24,20.67,205.2
"2010-04-13 00:36:00",20692,10.85,242,1.706,0.305,18.52,108.0357,19.85,20.9,13.91,0,110.8,13.24,20.67,204.0
"2010-04-13 00:36:30",20693,11.86,240.5,1.776,0.228,18.59,108.0376,19.86,20.89,13.87,0,110.7,13.24,20.68,202.5
"2010-04-13 00:37:00",20694,11.96,238.5,2.759,0.39,18.61,108.0332,19.84,20.88,13.79,0,110.8,13.24,20.67,200.5
"2010-04-13 00:37:30",20695,11.56,239.8,2.027,0.392,18.56,108.022,19.82,20.86,13.79,0,110.7,13.24,20.64,201.8
"2010-04-13 00:38:00",20696,10.78,241.4,1.47,0.358,18.6,108.0074,19.78,20.86,13.73,0,110.8,13.24,20.60,203.4
"2010-04-13 00:38:30",20697,11.18,241,2.319,0.294,18.53,108.0068,19.78,20.84,13.85,0,110.7,13.24,20.60,203.0
"2010-04-13 00:39:00",20698,11.49,240.5,1.229,0.148,18.52,108.0102,19.79,20.83,13.83,0,110.7,13.24,20.61,202.5
"2010-04-13 00:39:30",20699,11.62,238,0.77,0.24,18.61,108.0089,19.78,20.82,13.76,0,110.7,13.24,20.60,200.0
"2010-04-13 00:40:00",20700,11.83,236.4,1.595,0.176,18.59,108.0099,19.78,20.8,13.74,0,110.7,13.24,20.61,198.4
"2010-04-13 00:40:30",20701,11.86,234,1.552,0.337,18.59,108.0103,19.79,20.8,13.8,0,110.7,13.24,20.61,196.0
"2010-04-13 00:41:00",20702,11.6,233.2,0.776,0.299,18.58,108.0068,19.78,20.78,13.83,0,110.7,13.24,20.60,195.2
"2010-04-13 00:41:30",20703,10.96,235.2,2.096,0.156,18.58,108.0004,19.76,20.77,13.8,0,110.7,13.24,20.58,197.2
"2010-04-13 00:42:00",20704,11.16,238.7,3.005,0.239,18.51,107.9921,19.74,20.77,13.88,0,110.7,13.24,20.56,200.7
"2010-04-13 00:42:30",20705,11.04,236.6,2.694,0.361,18.56,107.987,19.73,20.76,13.92,0,110.7,13.25,20.55,198.6
"2010-04-13 00:43:00",20706,10.69,238.9,1.11,0.302,18.4,107.9885,19.73,20.76,14.02,0,110.7,13.25,20.55,200.9
"2010-04-13 00:43:30",20707,10.53,240.1,1.409,0.167,18.41,107.9925,19.74,20.75,14.1,0,110.7,13.25,20.56,202.1
"2010-04-13 00:44:00",20708,10.78,238.9,1.65,0.175,18.43,107.9934,19.74,20.76,14.09,0,110.7,13.25,20.56,200.9
"2010-04-13 00:44:30",20709,11.32,235.3,4.946,0.23,18.57,107.9943,19.75,20.74,14.07,0,110.7,13.25,20.57,197.3
"2010-04-13 00:45:00",20710,11.98,227.5,1.855,0.549,18.65,107.9946,19.75,20.74,14,0,110.7,13.25,20.57,189.5
"2010-04-13 00:45:30",20711,10.19,233.1,3.789,1.063,18.54,107.9965,19.75,20.72,14.03,0,110.7,13.24,20.57,195.1
"2010-04-13 00:46:00",20712,8.99,237.3,2.217,0.453,18.41,107.9946,19.75,20.71,14.12,0,110.7,13.24,20.57,199.3
"2010-04-13 00:46:30",20713,9.57,231.6,3.762,0.327,18.5,107.9819,19.71,20.7,14.13,0,110.7,13.24,20.53,193.6
"2010-04-13 00:47:00",20714,9.75,235.3,3.925,0.332,18.47,107.9788,19.71,20.72,14.14,0,110.7,13.24,20.53,197.3
"2010-04-13 00:47:30",20715,10.08,240.7,1.389,0.481,18.39,107.9752,19.7,20.7,14.26,0,110.7,13.24,20.52,202.7
"2010-04-13 00:48:00",20716,10.39,240,1.98,0.196,18.46,107.9703,19.68,20.69,14.28,0,110.7,13.24,20.50,202.0
"2010-04-13 00:48:30",20717,10.09,239.1,2.036,0.26,18.5,107.9703,19.68,20.68,14.18,0,110.7,13.24,20.50,201.1
"2010-04-13 00:49:00",20718,10.17,237.8,2.218,0.186,18.51,107.9697,19.68,20.68,14.2,0,110.7,13.24,20.50,199.8
"2010-04-13 00:49:30",20719,10.59,236,2.459,0.242,18.53,107.9697,19.68,20.67,14.21,0,110.7,13.24,20.50,198.0
"2010-04-13 00:50:00",20720,10.22,237.2,2.314,0.272,18.52,107.9703,19.68,20.65,14.21,0,110.7,13.24,20.50,199.2
"2010-04-13 00:50:30",20721,10,238.8,2.214,0.168,18.49,107.9703,19.68,20.66,14.2,0,110.7,13.24,20.50,200.8
"2010-04-13 00:51:00",20722,9.8,239.3,0.964,0.134,18.37,107.9692,19.68,20.64,14.33,0,110.7,13.24,20.50,201.3
"2010-04-13 00:51:30",20723,9.73,236.1,1.026,0.19,18.39,107.9641,19.67,20.64,14.36,0,110.7,13.25,20.49,198.1
"2010-04-13 00:52:00",20724,9.73,239.4,1.42,0.175,18.38,107.9542,19.64,20.63,14.42,0,110.7,13.25,20.46,201.4
"2010-04-13 00:52:30",20725,9.48,235.7,3.362,0.328,18.39,107.941,19.61,20.63,14.4,0,110.7,13.25,20.43,197.7
"2010-04-13 00:53:00",20726,9.81,234.6,1.398,0.311,18.36,107.9371,19.6,20.63,14.47,0,110.7,13.25,20.42,196.6
"2010-04-13 00:53:30",20727,10,236.9,1.01,0.189,18.38,107.9365,19.6,20.62,14.51,0,110.7,13.25,20.42,198.9
"2010-04-13 00:54:00",20728,9.7,235.6,2.58,0.359,18.44,107.9365,19.6,20.61,14.44,0,110.7,13.25,20.42,197.6
"2010-04-13 00:54:30",20729,9.62,237,2.108,0.182,18.4,107.9365,19.6,20.59,14.42,0,110.7,13.25,20.42,199.0
"2010-04-13 00:55:00",20730,9.01,235.4,1.206,0.243,18.37,107.9365,19.6,20.58,14.49,0,110.7,13.25,20.42,197.4
"2010-04-13 00:55:30",20731,8.22,233.6,3.089,0.299,18.4,107.9351,19.59,20.58,14.5,0,110.7,13.25,20.41,195.6
"2010-04-13 00:56:00",20732,8.53,237.3,3.254,1.072,18.37,107.9275,19.57,20.57,14.49,0,110.7,13.25,20.39,199.3
"2010-04-13 00:56:30",20733,9.74,239.5,0.506,0.094,18.42,107.9238,19.56,20.57,14.56,0,110.7,13.25,20.38,201.5
"2010-04-13 00:57:00",20734,9.53,238,1.295,0.315,18.35,107.9064,19.52,20.55,14.58,0,110.7,13.25,20.34,200.0
"2010-04-13 00:57:30",20735,9.53,235.3,1.558,0.287,18.43,107.9027,19.51,20.56,14.55,0,110.7,13.25,20.33,197.3
"2010-04-13 00:58:00",20736,9.94,230.3,2.461,0.558,18.58,107.9027,19.51,20.55,14.51,0,110.7,13.25,20.33,192.3
"2010-04-13 00:58:30",20737,11.29,227.9,4.994,0.462,18.6,107.9027,19.51,20.53,14.48,0,110.7,13.26,20.33,189.9
"2010-04-13 00:59:00",20738,10.06,230,3.693,0.889,18.49,107.9027,19.51,20.52,14.52,0,110.7,13.26,20.33,192.0
"2010-04-13 00:59:30",20739,9.01,227.2,1.842,0.347,18.5,107.9027,19.51,20.51,14.53,0,110.7,13.25,20.33,189.2
"2010-04-13 01:00:00",20740,9.19,225.6,2.681,0.259,18.52,107.9027,19.51,20.52,14.52,0,110.7,13.25,20.33,187.6
"2010-04-13 01:00:30",20741,9.17,224.8,2.157,0.192,18.54,107.9027,19.51,20.51,14.51,0,110.7,13.25,20.33,186.8
"2010-04-13 01:01:00",20742,9.65,224.3,2.4,0.355,18.46,107.9027,19.51,20.5,14.58,0,110.7,13.25,20.33,186.3
"2010-04-13 01:01:30",20743,9.9,221.7,2.684,0.478,18.63,107.9027,19.51,20.5,14.45,0,110.7,13.26,20.33,183.7
"2010-04-13 01:02:00",20744,11.1,223.9,2.017,0.554,18.76,107.9027,19.51,20.5,14.22,0,110.7,13.26,20.33,185.9
"2010-04-13 01:02:30",20745,9.98,224.1,2.664,0.369,18.59,107.9027,19.51,20.51,14.27,0,110.7,13.25,20.33,186.1
"2010-04-13 01:03:00",20746,9.06,228.7,1.709,0.415,18.42,107.9027,19.51,20.5,14.48,0,110.7,13.25,20.33,190.7
"2010-04-13 01:03:30",20747,10.4,224.7,2.795,0.497,18.59,107.9027,19.51,20.51,14.42,0,110.7,13.25,20.33,186.7
"2010-04-13 01:04:00",20748,11.72,219.1,4.64,1.103,18.6,107.9027,19.51,20.51,14.38,0,110.7,13.25,20.33,181.1
"2010-04-13 01:04:30",20749,9.98,223.6,2.797,0.413,18.5,107.9027,19.51,20.52,14.44,0,110.7,13.25,20.33,185.6
"2010-04-13 01:05:00",20750,10.66,226.6,5.377,0.454,18.61,107.9027,19.51,20.51,14.35,0,110.7,13.25,20.33,188.6
"2010-04-13 01:05:30",20751,11.64,220.8,3.328,0.668,18.57,107.9027,19.51,20.52,14.41,0,110.7,13.25,20.33,182.8
"2010-04-13 01:06:00",20752,12.17,217,2.152,0.155,18.73,107.9027,19.51,20.53,14.11,0,110.7,13.25,20.33,179.0
"2010-04-13 01:06:30",20753,11.17,220,1.666,0.441,18.59,107.903,19.51,20.53,14.19,0,110.7,13.25,20.33,182.0
"2010-04-13 01:07:00",20754,10.65,221.4,2.304,0.5,18.57,107.9036,19.51,20.53,14.26,0,110.7,13.25,20.33,183.4
"2010-04-13 01:07:30",20755,11.05,218.4,2.709,0.34,18.69,107.9036,19.51,20.53,14.16,0,110.7,13.25,20.33,180.4
"2010-04-13 01:08:00",20756,11.62,220.3,2.542,0.488,18.61,107.9039,19.51,20.54,14.26,0,110.7,13.26,20.33,182.3
"2010-04-13 01:08:30",20757,11.38,219,3.218,0.632,18.49,107.9104,19.53,20.54,14.38,0,110.7,13.26,20.35,181.0
"2010-04-13 01:09:00",20758,9.99,225,2.581,0.396,18.38,107.9167,19.55,20.55,14.47,0,110.7,13.26,20.37,187.0
"2010-04-13 01:09:30",20759,9.76,229.6,2.769,0.429,18.35,107.9164,19.55,20.55,14.59,0,110.7,13.26,20.37,191.6
"2010-04-13 01:10:00",20760,9.96,223.8,2.411,0.712,18.58,107.9159,19.54,20.54,14.44,0,110.7,13.26,20.36,185.8
"2010-04-13 01:10:30",20761,10.78,221.8,2.081,0.378,18.62,107.9123,19.53,20.55,14.28,0,110.7,13.26,20.35,183.8
"2010-04-13 01:11:00",20762,9.79,221.7,3.893,0.895,18.5,107.9094,19.53,20.56,14.39,0,110.7,13.26,20.35,183.7
"2010-04-13 01:11:30",20763,8.3,223,2.671,0.411,18.39,107.9121,19.53,20.55,14.5,0,110.7,13.26,20.35,185.0
"2010-04-13 01:12:00",20764,8.72,219.9,4.072,0.487,18.52,107.9121,19.53,20.53,14.51,0,110.7,13.26,20.35,181.9
"2010-04-13 01:12:30",20765,8.55,219.8,2.343,0.379,18.51,107.9149,19.54,20.55,14.46,0,110.7,13.26,20.36,181.8
"2010-04-13 01:13:00",20766,9.49,215.3,3.466,0.756,18.54,107.9161,19.54,20.55,14.5,0,110.7,13.26,20.36,177.3
"2010-04-13 01:13:30",20767,8.89,219,4.745,0.72,18.54,107.9194,19.55,20.53,14.39,0,110.7,13.26,20.37,181.0
"2010-04-13 01:14:00",20768,9.39,214.1,2.508,0.368,18.58,107.92,19.55,20.54,14.43,0,110.7,13.26,20.37,176.1
"2010-04-13 01:14:30",20769,8.49,218.3,3.095,0.324,18.38,107.9237,19.56,20.53,14.48,0,110.7,13.26,20.38,180.3
"2010-04-13 01:15:00",20770,9.3,221.8,2.982,0.336,18.49,107.924,19.56,20.52,14.54,0,110.7,13.26,20.38,183.8
"2010-04-13 01:15:30",20771,9.24,221.7,3.42,0.566,18.64,107.924,19.56,20.52,14.32,0,110.7,13.26,20.38,183.7
"2010-04-13 01:16:00",20772,9.4,217.1,2.381,0.695,18.39,107.9235,19.56,20.52,14.43,0,110.7,13.26,20.38,179.1
"2010-04-13 01:16:30",20773,8.65,215.6,4.796,0.451,18.44,107.9192,19.55,20.52,14.55,0,110.7,13.26,20.37,177.6
"2010-04-13 01:17:00",20774,9.64,215.5,2.943,0.48,18.48,107.912,19.53,20.51,14.51,0,110.7,13.26,20.35,177.5
"2010-04-13 01:17:30",20775,9.13,220,2.769,0.337,18.45,107.8991,19.5,20.51,14.55,0,110.7,13.26,20.32,182.0
"2010-04-13 01:18:00",20776,9.35,217.2,1.489,0.309,18.49,107.8969,19.5,20.51,14.57,0,110.7,13.26,20.32,179.2
"2010-04-13 01:18:30",20777,8.86,221.8,2.877,0.228,18.43,107.8987,19.5,20.5,14.61,0,110.7,13.26,20.32,183.8
"2010-04-13 01:19:00",20778,8.7,224.6,1.413,0.202,18.48,107.8993,19.5,20.5,14.62,0,110.7,13.26,20.32,186.6
"2010-04-13 01:19:30",20779,10.13,218.1,3.288,0.447,18.7,107.8999,19.5,20.49,14.42,0,110.7,13.26,20.32,180.1
"2010-04-13 01:20:00",20780,9.77,222.4,2.975,0.538,18.63,107.8996,19.5,20.49,14.32,0,110.7,13.26,20.32,184.4
"2010-04-13 01:20:30",20781,9.07,220.7,3.863,0.474,18.58,107.9008,19.51,20.48,14.38,0,110.7,13.26,20.33,182.7
"2010-04-13 01:21:00",20782,9.91,221.7,1.86,0.884,18.67,107.9039,19.51,20.47,14.37,0,110.7,13.26,20.33,183.7
"2010-04-13 01:21:30",20783,10.3,222,1.815,0.487,18.67,107.9042,19.51,20.47,14.27,0,110.7,13.26,20.33,184.0
"2010-04-13 01:22:00",20784,9.46,224.3,2.486,0.27,18.58,107.9042,19.51,20.46,14.34,0,110.7,13.26,20.33,186.3
"2010-04-13 01:22:30",20785,9.36,219.6,1.53,0.211,18.48,107.9045,19.51,20.47,14.46,0,110.7,13.26,20.33,181.6
"2010-04-13 01:23:00",20786,9,221.4,4.719,0.438,18.45,107.9051,19.52,20.46,14.57,0,110.7,13.26,20.34,183.4
"2010-04-13 01:23:30",20787,8.67,220.9,2.341,0.313,18.39,107.9051,19.52,20.45,14.73,0,110.7,13.26,20.34,182.9
"2010-04-13 01:24:00",20788,7.936,223.1,4.362,0.31,18.4,107.9051,19.52,20.47,14.66,0,110.7,13.26,20.34,185.1
"2010-04-13 01:24:30",20789,8.3,221.3,2.003,0.663,18.48,107.9054,19.52,20.46,14.6,0,110.7,13.26,20.34,183.3
"2010-04-13 01:25:00",20790,9.04,223.2,2.373,0.243,18.55,107.9043,19.51,20.46,14.52,0,110.7,13.26,20.33,185.2
"2010-04-13 01:25:30",20791,9.24,222.2,1.336,0.373,18.55,107.9017,19.51,20.45,14.5,0,110.7,13.26,20.33,184.2
"2010-04-13 01:26:00",20792,8.67,222.5,1.547,0.237,18.49,107.8967,19.49,20.46,14.56,0,110.7,13.26,20.31,184.5
"2010-04-13 01:26:30",20793,8.65,219.9,1.79,0.372,18.48,107.8902,19.48,20.44,14.57,0,110.7,13.27,20.30,181.9
"2010-04-13 01:27:00",20794,8.31,220.3,0.994,0.186,18.47,107.8775,19.45,20.45,14.6,0,110.7,13.27,20.27,182.3
"2010-04-13 01:27:30",20795,8.21,220.3,1.061,0.123,18.47,107.8719,19.43,20.44,14.63,0,110.7,13.27,20.25,182.3
"2010-04-13 01:28:00",20796,7.99,222.9,1.476,0.191,18.44,107.8719,19.43,20.44,14.65,0,110.7,13.27,20.25,184.9
"2010-04-13 01:28:30",20797,8.22,226.6,1.599,0.278,18.44,107.8716,19.43,20.43,14.75,0,110.7,13.27,20.25,188.6
"2010-04-13 01:29:00",20798,8.27,228.3,2.344,0.254,18.45,107.8716,19.43,20.42,14.76,0,110.7,13.27,20.25,190.3
"2010-04-13 01:29:30",20799,7.98,225.3,1.612,0.306,18.44,107.8716,19.43,20.41,14.71,0,110.7,13.27,20.25,187.3
"2010-04-13 01:30:00",20800,7.81,222.1,2.114,0.324,18.46,107.8716,19.43,20.41,14.77,0,110.7,13.27,20.25,184.1
"2010-04-13 01:30:30",20801,8.08,227.4,1.944,0.344,18.48,107.8716,19.43,20.41,14.67,0,110.7,13.27,20.25,189.4
"2010-04-13 01:31:00",20802,8.09,222,2.977,0.35,18.43,107.8716,19.43,20.41,14.62,0,110.7,13.27,20.25,184.0
"2010-04-13 01:31:30",20803,7.684,223.3,1.1,0.24,18.39,107.8711,19.43,20.41,14.86,0,110.7,13.27,20.25,185.3
"2010-04-13 01:32:00",20804,7.428,225.6,1.096,0.135,18.4,107.8634,19.41,20.39,14.91,0,110.7,13.27,20.23,187.6
"2010-04-13 01:32:30",20805,7.721,223.4,1.936,0.154,18.47,107.8578,19.39,20.39,14.66,0,110.7,13.27,20.21,185.4
"2010-04-13 01:33:00",20806,7.651,222.2,1.975,0.182,18.43,107.8435,19.36,20.37,14.71,0,110.7,13.27,20.18,184.2
"2010-04-13 01:33:30",20807,7.897,221.6,1.202,0.346,18.53,107.8387,19.35,20.38,14.58,0,110.7,13.27,20.17,183.6
"2010-04-13 01:34:00",20808,7.673,220.4,2.043,0.24,18.53,107.8378,19.34,20.36,14.54,0,110.7,13.27,20.16,182.4
"2010-04-13 01:34:30",20809,7.521,221,1.648,0.2,18.51,107.8378,19.34,20.35,14.52,0,110.7,13.27,20.16,183.0
"2010-04-13 01:35:00",20810,7.712,222.5,2.083,0.345,18.45,107.8378,19.34,20.35,14.59,0,110.7,13.27,20.16,184.5
"2010-04-13 01:35:30",20811,7.91,221.1,3.445,0.232,18.52,107.8378,19.34,20.35,14.57,0,110.7,13.27,20.16,183.1
"2010-04-13 01:36:00",20812,7.534,222.7,1.624,0.159,18.38,107.8378,19.34,20.35,14.59,0,110.7,13.27,20.16,184.7
"2010-04-13 01:36:30",20813,7.683,219.3,2.254,0.253,18.55,107.8378,19.34,20.33,14.55,0,110.7,13.26,20.16,181.3
"2010-04-13 01:37:00",20814,8.06,215.8,2.499,0.313,18.58,107.8378,19.34,20.33,14.47,0,110.7,13.26,20.16,177.8
"2010-04-13 01:37:30",20815,7.652,218.7,3.024,0.325,18.54,107.8378,19.34,20.33,14.44,0,110.7,13.26,20.16,180.7
"2010-04-13 01:38:00",20816,7.836,219.2,1.809,0.332,18.51,107.8378,19.34,20.33,14.5,0,110.7,13.26,20.16,181.2
"2010-04-13 01:38:30",20817,7.541,215.5,2.059,0.316,18.47,107.8375,19.34,20.33,14.51,0,110.7,13.26,20.16,177.5
"2010-04-13 01:39:00",20818,7.136,219.3,1.661,0.144,18.37,107.8359,19.34,20.31,14.62,0,110.7,13.26,20.16,181.3
"2010-04-13 01:39:30",20819,6.99,219.4,1.059,0.288,18.42,107.8294,19.32,20.3,14.66,0,110.7,13.26,20.14,181.4
"2010-04-13 01:40:00",20820,6.937,218.3,1.592,0.255,18.33,107.8229,19.31,20.32,14.79,0,110.7,13.26,20.12,180.3
"2010-04-13 01:40:30",20821,7.138,215.4,1.301,0.25,18.46,107.8139,19.28,20.31,14.84,0,110.7,13.26,20.10,177.4
"2010-04-13 01:41:00",20822,7.177,214,1.159,0.194,18.49,107.8119,19.28,20.31,14.68,0,110.7,13.26,20.10,176.0
"2010-04-13 01:41:30",20823,7.183,212.8,1.259,0.103,18.41,107.8057,19.26,20.3,14.7,0,110.7,13.27,20.08,174.8
"2010-04-13 01:42:00",20824,7.041,214.4,2.328,0.237,18.36,107.8043,19.26,20.29,14.94,0,110.7,13.27,20.08,176.4
"2010-04-13 01:42:30",20825,6.642,212.6,2.17,0.199,18.33,107.8041,19.26,20.29,14.97,0,110.7,13.27,20.08,174.6
"2010-04-13 01:43:00",20826,6.433,211,1.705,0.124,18.33,107.8041,19.26,20.29,15.07,0,110.7,13.27,20.08,173.0
"2010-04-13 01:43:30",20827,6.368,206.3,2.83,0.162,18.38,107.8041,19.26,20.28,15.07,0,110.7,13.27,20.08,168.3
"2010-04-13 01:44:00",20828,6.15,204.9,1.879,0.214,18.36,107.8041,19.26,20.27,15.1,0,110.7,13.27,20.08,166.9
"2010-04-13 01:44:30",20829,6.227,205,1.925,0.229,18.39,107.8041,19.26,20.27,15.15,0,110.7,13.27,20.08,167.0
"2010-04-13 01:45:00",20830,5.864,201.6,1.086,0.196,18.35,107.8038,19.26,20.27,15.11,0,110.7,13.27,20.08,163.6
"2010-04-13 01:45:30",20831,6.011,198.6,3.006,0.108,18.29,107.7962,19.24,20.26,15.22,0,110.7,13.27,20.06,160.6
"2010-04-13 01:46:00",20832,6.141,193.1,1.572,0.216,18.41,107.7796,19.19,20.25,15.26,0,110.7,13.27,20.01,155.1
"2010-04-13 01:46:30",20833,5.958,191.8,2.794,0.196,18.47,107.7711,19.17,20.24,15.27,0,110.7,13.27,19.99,153.8
"2010-04-13 01:47:00",20834,6.277,193.6,2.456,0.338,18.46,107.7703,19.17,20.23,15.22,0,110.7,13.27,19.99,155.6
"2010-04-13 01:47:30",20835,6.142,193.8,1.979,0.215,18.44,107.7703,19.17,20.23,15.24,0,110.7,13.27,19.99,155.8
"2010-04-13 01:48:00",20836,5.706,191.5,1.773,0.171,18.4,107.7703,19.17,20.21,15.27,0,110.7,13.27,19.99,153.5
"2010-04-13 01:48:30",20837,5.828,186.7,2.193,0.235,18.47,107.77,19.17,20.21,15.3,0,110.7,13.27,19.99,148.7
"2010-04-13 01:49:00",20838,5.881,183.6,1.229,0.253,18.43,107.7604,19.15,20.2,15.3,0,110.7,13.27,19.96,145.6